Погода в Кряжевом

Россия / Астраханская область     45°51′24″N   47°31′45″E
темп.,
°C
ветер,
м/с
пор.,
м/с
влажн.,
%
обл.,
%
осадки,
мм/ч
давл.,
гПа
погр.,
м
29 июня, ср
ср2901:00+24зсз51040100 0.1 1010229
04:00+22зсз51146100 0.1 1010255
07:00+23сз5746100 0.0 1010260
10:00+27с434174 0.0 1010722
13:00+30с653363 0.0 10111356
16:00+30ссв553429 0.0 10111548
19:00+27ююв43450 0.0 1011649
22:00+22ююв11670 0.0 101314
30 июня, чт
чт3001:00+22ссв46460 0.0 1013113
04:00+20св59350 0.0 1013183
07:00+21всв57320 0.0 1014267
10:00+26св33250 0.0 10141183
13:00+28с33190 0.0 10132341
16:00+29ссв44170 0.0 10122453
19:00+27юв332599 0.0 1011972
22:00+22ю345415 0.0 101271
1 июля, пт
пт101:00+21ююз2260100 0.0 101223
04:00+21ююз346280 0.0 101171
07:00+23юз345798 0.0 1011251
10:00+27юз453447 0.0 10111518
13:00+29зюз362689 0.0 10093009
16:00+29ююз672933 0.0 10081564
19:00+30зюз2624100 0.0 10072387
22:00+27сз4828100 0.0 1007453
2 июля, сб
сб201:00+22с71044100 0.0 1008503
04:00+20с69498 0.0 1009557
07:00+18ссз89465 0.0 1011717
10:00+20сз810350 0.0 10111510
13:00+22сз89324 0.0 10112061
16:00+23зсз911318 0.0 10112490
19:00+22зсз9103511 0.0 10111726
22:00+20зсз9144784 0.0 10111163
3 июля, вс
вс301:00+18сз1015554 0.0 10111413
04:00+18зсз1014585 0.0 1011992
07:00+18сз1014615 0.0 1012999
10:00+23сз1013435 0.0 10121670
13:00+27сз9113142 0.0 10122768
16:00+29ссз792458 0.0 10123269
19:00+28сз672486 0.0 10122897
22:00+24зсз48295 0.0 1014149